Location: Irma
(52.9170°N, 111.2330°W)
Time: 02:34:22
(UTC-06:00)

Cosmos 1633 Rocket - Visible Passes

Search period start: 24 August 2016 00:00
Search period end: 03 September 2016 00:00
Orbit: 609 x 623 km, 82.5° (Epoch: 23 August)

Date Brightness Start Highest point End Pass type
(mag) Time Alt. Az. Time Alt. Az. Time Alt. Az.
24 Aug 5.3 01:02:46 10° NNE 01:05:43 17° ENE 01:06:49 16° E visible
24 Aug 3.0 02:39:38 10° NNW 02:43:53 73° WNW 02:43:53 73° WNW visible
24 Aug 5.3 04:20:11 10° WNW 04:20:57 10° WNW 04:20:57 10° WNW visible
25 Aug 4.7 01:18:38 10° N 01:22:22 26° ENE 01:22:49 25° ENE visible
25 Aug 3.7 02:56:09 10° NNW 02:59:53 43° WNW 02:59:53 43° WNW visible
26 Aug 4.1 01:34:44 10° N 01:38:50 40° ENE 01:38:50 40° ENE visible
26 Aug 4.4 03:12:50 10° NNW 03:15:54 26° WNW 03:15:54 26° WNW visible
27 Aug 5.7 00:15:27 10° NE 00:16:39 11° NE 00:17:47 10° ENE visible
27 Aug 3.5 01:50:59 10° N 01:54:52 58° NE 01:54:52 58° NE visible
27 Aug 5.0 03:29:48 10° NW 03:31:56 17° WNW 03:31:56 17° WNW visible
28 Aug 5.2 00:30:33 10° NNE 00:33:25 17° ENE 00:33:50 16° ENE visible
28 Aug 3.6 02:07:21 10° NNW 02:10:54 55° NNW 02:10:54 55° NNW visible
28 Aug 5.5 03:47:39 10° WNW 03:47:59 10° WNW 03:47:59 10° WNW visible
29 Aug 4.8 00:46:24 10° N 00:49:53 25° ENE 00:49:53 25° ENE visible
29 Aug 4.1 02:23:52 10° NNW 02:26:58 37° NW 02:26:58 37° NW visible
30 Aug 4.3 01:02:29 10° N 01:05:58 36° NE 01:05:58 36° NE visible
30 Aug 4.7 02:40:32 10° NNW 02:43:02 24° WNW 02:43:02 24° WNW visible
30 Aug 5.6 23:43:24 10° NE 23:44:22 11° NE 23:44:59 10° ENE visible
31 Aug 4.0 01:18:43 10° N 01:22:03 46° NNE 01:22:03 46° NNE visible
31 Aug 5.2 02:57:28 10° NW 02:59:08 16° WNW 02:59:08 16° WNW visible
31 Aug 5.3 23:58:20 10° NNE 00:01:05 16° ENE 00:01:05 16° ENE visible
01 Sep 4.1 01:35:05 10° NNW 01:38:09 43° NNW 01:38:09 43° NNW visible
01 Sep 5.6 03:15:12 10° WNW 03:15:13 10° WNW 03:15:13 10° WNW visible
02 Sep 4.9 00:14:09 10° N 00:17:11 23° NE 00:17:11 23° NE visible
02 Sep 4.5 01:51:35 10° NNW 01:54:15 32° NW 01:54:15 32° NW visible
